date,time,SUV Intensity [MED/Hr],UV Index,Daily total [MED],Since Last [MED]
23/06/2023,23:58:09,0.000,0.0,15.108,15.108
23/06/2023,23:59:09,0.000,0.0,15.108,0.0
24/06/2023,00:00:09,0.000,0.0,0.0,-15.108
24/06/2023,00:01:09,0.001,0.0,0.0,0.0
24/06/2023,00:02:10,0.000,0.0,0.0,0.0
24/06/2023,00:03:09,0.000,0.0,0.0,0.0
24/06/2023,00:04:09,0.000,0.0,0.0,0.0
24/06/2023,00:05:08,0.000,0.0,0.0,0.0
24/06/2023,00:06:09,0.000,0.0,0.0,0.0
24/06/2023,00:07:09,0.000,0.0,0.0,0.0
24/06/2023,00:08:09,0.001,0.0,0.0,0.0
24/06/2023,00:09:10,0.001,0.0,0.0,0.0
24/06/2023,00:10:09,0.000,0.0,0.0,0.0
24/06/2023,00:11:09,0.000,0.0,0.0,0.0
24/06/2023,00:12:08,0.001,0.0,0.0,0.0
24/06/2023,00:13:09,0.000,0.0,0.0,0.0
24/06/2023,00:14:08,0.000,0.0,0.0,0.0
24/06/2023,00:15:08,0.001,0.0,0.0,0.0
24/06/2023,00:16:09,0.000,0.0,0.0,0.0
24/06/2023,00:17:09,0.001,0.0,0.0,0.0
24/06/2023,00:18:09,0.000,0.0,0.0,0.0
24/06/2023,00:19:10,0.000,0.0,0.0,0.0
24/06/2023,00:20:09,0.001,0.0,0.0,0.0
24/06/2023,00:21:09,0.000,0.0,0.0,0.0
24/06/2023,00:22:09,-0.000,0.0,0.0,0.0
24/06/2023,00:23:09,0.000,0.0,0.0,0.0
24/06/2023,00:24:09,0.001,0.0,0.0,0.0
24/06/2023,00:25:09,-0.000,0.0,0.0,0.0
24/06/2023,00:26:09,0.000,0.0,0.0,0.0
24/06/2023,00:27:09,0.000,0.0,0.0,0.0
24/06/2023,00:28:09,0.000,0.0,0.0,0.0
24/06/2023,00:29:09,0.001,0.0,0.0,0.0
24/06/2023,00:30:09,0.000,0.0,0.0,0.0
24/06/2023,00:31:08,-0.001,0.0,0.0,0.0
24/06/2023,00:32:09,0.000,0.0,0.0,0.0
24/06/2023,00:33:09,0.000,0.0,0.0,0.0
24/06/2023,00:34:08,0.000,0.0,0.0,0.0
24/06/2023,00:35:09,0.000,0.0,0.0,0.0
24/06/2023,00:36:09,0.001,0.0,0.0,0.0
24/06/2023,00:37:08,0.000,0.0,0.0,0.0
24/06/2023,00:38:09,0.000,0.0,0.0,0.0
24/06/2023,00:39:08,0.000,0.0,0.0,0.0
24/06/2023,00:40:09,0.000,0.0,0.0,0.0
24/06/2023,00:41:09,-0.000,0.0,0.0,0.0
24/06/2023,00:42:09,-0.001,0.0,0.0,0.0
24/06/2023,00:43:09,0.000,0.0,0.0,0.0
24/06/2023,00:44:09,-0.001,0.0,0.0,0.0
24/06/2023,00:45:09,0.000,0.0,0.0,0.0
24/06/2023,00:46:09,0.000,0.0,0.0,0.0
24/06/2023,00:47:08,0.000,0.0,0.0,0.0
24/06/2023,00:48:09,0.001,0.0,0.0,0.0
24/06/2023,00:49:09,0.001,0.0,0.0,0.0
24/06/2023,00:50:08,0.000,0.0,0.0,0.0
24/06/2023,00:51:08,0.000,0.0,0.0,0.0
24/06/2023,00:52:31,0.000,0.0,0.0,0.0
24/06/2023,00:54:10,0.000,0.0,0.0,0.0
24/06/2023,00:55:09,0.001,0.0,0.0,0.0
24/06/2023,00:56:09,-0.000,0.0,0.0,0.0
24/06/2023,00:57:09,0.001,0.0,0.0,0.0
24/06/2023,00:58:09,0.000,0.0,0.0,0.0
24/06/2023,00:59:08,0.000,0.0,0.0,0.0
24/06/2023,01:00:09,0.000,0.0,0.0,0.0
24/06/2023,01:01:08,-0.001,0.0,0.0,0.0
24/06/2023,01:02:09,0.000,0.0,0.0,0.0
24/06/2023,01:03:09,-0.000,0.0,0.0,0.0
24/06/2023,01:04:09,0.001,0.0,0.0,0.0
24/06/2023,01:05:09,0.001,0.0,0.0,0.0
24/06/2023,01:06:09,0.001,0.0,0.0,0.0
24/06/2023,01:07:08,0.001,0.0,0.0,0.0
24/06/2023,01:08:09,0.001,0.0,0.0,0.0
24/06/2023,01:09:09,-0.001,0.0,0.0,0.0
24/06/2023,01:10:09,0.000,0.0,0.0,0.0
24/06/2023,01:11:09,0.000,0.0,0.0,0.0
24/06/2023,01:12:09,0.000,0.0,0.0,0.0
24/06/2023,01:13:09,-0.001,0.0,0.0,0.0
24/06/2023,01:14:08,0.000,0.0,0.0,0.0
24/06/2023,01:15:09,0.000,0.0,0.0,0.0
24/06/2023,01:16:09,0.000,0.0,0.0,0.0
24/06/2023,01:17:09,0.000,0.0,0.0,0.0
24/06/2023,01:18:09,0.000,0.0,0.0,0.0
24/06/2023,01:19:09,0.000,0.0,0.0,0.0
24/06/2023,01:20:09,0.000,0.0,0.0,0.0
24/06/2023,01:21:09,0.000,0.0,0.0,0.0
24/06/2023,01:22:09,0.000,0.0,0.0,0.0
24/06/2023,01:23:09,-0.001,0.0,0.0,0.0
24/06/2023,01:24:09,-0.000,0.0,0.0,0.0
24/06/2023,01:25:09,-0.001,0.0,0.0,0.0
24/06/2023,01:26:08,0.000,0.0,0.0,0.0
24/06/2023,01:27:09,0.000,0.0,0.0,0.0
24/06/2023,01:28:09,0.000,0.0,0.0,0.0
24/06/2023,01:29:09,0.000,0.0,0.0,0.0
24/06/2023,01:30:09,0.001,0.0,0.0,0.0
24/06/2023,01:31:08,0.000,0.0,0.0,0.0
24/06/2023,01:32:09,0.000,0.0,0.0,0.0
24/06/2023,01:33:09,0.000,0.0,0.0,0.0
24/06/2023,01:34:09,0.000,0.0,0.0,0.0
24/06/2023,01:35:09,0.001,0.0,0.0,0.0
24/06/2023,01:36:09,0.001,0.0,0.0,0.0
24/06/2023,01:37:09,0.000,0.0,0.0,0.0
24/06/2023,01:38:09,0.000,0.0,0.0,0.0
24/06/2023,01:39:09,0.000,0.0,0.0,0.0
24/06/2023,01:40:09,0.000,0.0,0.0,0.0
24/06/2023,01:41:09,0.000,0.0,0.0,0.0
24/06/2023,01:42:09,-0.000,0.0,0.0,0.0
24/06/2023,01:43:09,-0.000,0.0,0.0,0.0
24/06/2023,01:44:09,0.000,0.0,0.0,0.0
24/06/2023,01:45:09,0.000,0.0,0.0,0.0
24/06/2023,01:46:09,-0.001,0.0,0.0,0.0
24/06/2023,01:47:09,0.000,0.0,0.0,0.0
24/06/2023,01:48:09,0.001,0.0,0.0,0.0
24/06/2023,01:49:08,0.001,0.0,0.0,0.0
24/06/2023,01:50:09,0.000,0.0,0.0,0.0
24/06/2023,01:51:09,0.001,0.0,0.0,0.0
24/06/2023,01:52:09,0.001,0.0,0.0,0.0
24/06/2023,01:53:10,0.000,0.0,0.0,0.0
24/06/2023,01:54:09,0.000,0.0,0.0,0.0
24/06/2023,01:55:09,0.001,0.0,0.0,0.0
24/06/2023,01:56:09,0.000,0.0,0.0,0.0
24/06/2023,01:57:09,0.000,0.0,0.0,0.0
24/06/2023,01:58:09,-0.001,0.0,0.0,0.0
24/06/2023,01:59:09,0.001,0.0,0.0,0.0
24/06/2023,02:00:09,0.001,0.0,0.0,0.0
24/06/2023,02:01:10,-0.000,0.0,0.0,0.0
24/06/2023,02:02:09,0.000,0.0,0.0,0.0
24/06/2023,02:03:09,0.001,0.0,0.0,0.0
24/06/2023,02:04:09,0.000,0.0,0.0,0.0
24/06/2023,02:05:10,-0.000,0.0,0.0,0.0
24/06/2023,02:06:09,0.001,0.0,0.0,0.0
24/06/2023,02:07:09,0.001,0.0,0.0,0.0
24/06/2023,02:08:09,0.000,0.0,0.0,0.0
24/06/2023,02:09:09,0.000,0.0,0.0,0.0
24/06/2023,02:10:09,0.000,0.0,0.0,0.0
24/06/2023,02:11:09,0.000,0.0,0.0,0.0
24/06/2023,02:12:08,-0.001,0.0,0.0,0.0
24/06/2023,02:13:09,-0.001,0.0,0.0,0.0
24/06/2023,02:14:09,-0.000,0.0,0.0,0.0
24/06/2023,02:15:09,-0.000,0.0,0.0,0.0
24/06/2023,02:16:09,0.001,0.0,0.0,0.0
24/06/2023,02:17:09,0.001,0.0,0.0,0.0
24/06/2023,02:18:09,0.001,0.0,0.0,0.0
24/06/2023,02:19:09,0.001,0.0,0.0,0.0
24/06/2023,02:20:09,0.000,0.0,0.0,0.0
24/06/2023,02:21:09,0.000,0.0,0.0,0.0
24/06/2023,02:22:09,0.000,0.0,0.0,0.0
24/06/2023,02:23:09,0.000,0.0,0.0,0.0
24/06/2023,02:24:09,-0.000,0.0,0.0,0.0
24/06/2023,02:25:09,0.000,0.0,0.0,0.0
24/06/2023,02:26:09,0.000,0.0,0.0,0.0
24/06/2023,02:27:09,0.000,0.0,0.0,0.0
24/06/2023,02:28:09,0.000,0.0,0.0,0.0
24/06/2023,02:29:09,0.000,0.0,0.0,0.0
24/06/2023,02:30:09,0.000,0.0,0.0,0.0
24/06/2023,02:31:09,-0.000,0.0,0.0,0.0
24/06/2023,02:32:09,-0.000,0.0,0.0,0.0
24/06/2023,02:33:09,0.000,0.0,0.0,0.0
24/06/2023,02:34:09,0.000,0.0,0.0,0.0
24/06/2023,02:35:09,0.001,0.0,0.0,0.0
24/06/2023,02:36:09,0.001,0.0,0.0,0.0
24/06/2023,02:37:10,0.000,0.0,0.0,0.0
24/06/2023,02:38:09,0.000,0.0,0.0,0.0
24/06/2023,02:39:09,0.000,0.0,0.0,0.0
24/06/2023,02:40:09,0.000,0.0,0.0,0.0
24/06/2023,02:41:09,0.001,0.0,0.0,0.0
24/06/2023,02:42:08,0.000,0.0,0.0,0.0
24/06/2023,02:43:09,0.000,0.0,0.0,0.0
24/06/2023,02:44:09,-0.000,0.0,0.0,0.0
24/06/2023,02:45:09,0.000,0.0,0.0,0.0
24/06/2023,02:46:09,0.001,0.0,0.0,0.0
24/06/2023,02:47:09,0.000,0.0,0.0,0.0
24/06/2023,02:48:09,0.000,0.0,0.0,0.0
24/06/2023,02:49:09,-0.000,0.0,0.0,0.0
24/06/2023,02:50:09,0.000,0.0,0.0,0.0
24/06/2023,02:51:09,0.000,0.0,0.0,0.0
24/06/2023,02:52:09,0.000,0.0,0.0,0.0
24/06/2023,02:53:09,0.000,0.0,0.0,0.0
24/06/2023,02:54:09,0.000,0.0,0.0,0.0
24/06/2023,02:55:09,0.000,0.0,0.0,0.0
24/06/2023,02:56:09,-0.001,0.0,0.0,0.0
24/06/2023,02:57:09,0.001,0.0,0.0,0.0
24/06/2023,02:58:09,0.000,0.0,0.0,0.0
24/06/2023,02:59:09,0.000,0.0,0.0,0.0
24/06/2023,03:00:09,0.001,0.0,0.0,0.0
24/06/2023,03:01:09,0.000,0.0,0.0,0.0
24/06/2023,03:02:10,0.000,0.0,0.0,0.0
24/06/2023,03:03:09,0.000,0.0,0.0,0.0
24/06/2023,03:04:09,0.000,0.0,0.0,0.0
24/06/2023,03:05:09,0.000,0.0,0.0,0.0
24/06/2023,03:06:09,0.000,0.0,0.0,0.0
24/06/2023,03:07:09,-0.000,0.0,0.0,0.0
24/06/2023,03:08:09,0.000,0.0,0.0,0.0
24/06/2023,03:09:09,0.000,0.0,0.0,0.0
24/06/2023,03:10:09,0.000,0.0,0.0,0.0
24/06/2023,03:11:09,0.000,0.0,0.0,0.0
24/06/2023,03:12:09,0.000,0.0,0.0,0.0
24/06/2023,03:13:09,0.000,0.0,0.0,0.0
24/06/2023,03:14:09,0.000,0.0,0.0,0.0
24/06/2023,03:15:09,0.000,0.0,0.0,0.0
24/06/2023,03:16:09,0.001,0.0,0.0,0.0
24/06/2023,03:17:10,0.000,0.0,0.0,0.0
24/06/2023,03:18:09,0.001,0.0,0.0,0.0
24/06/2023,03:19:10,0.000,0.0,0.0,0.0
24/06/2023,03:20:09,0.000,0.0,0.0,0.0
24/06/2023,03:21:09,0.000,0.0,0.0,0.0
24/06/2023,03:22:09,0.000,0.0,0.0,0.0
24/06/2023,03:23:09,0.001,0.0,0.0,0.0
24/06/2023,03:24:10,0.001,0.0,0.0,0.0
24/06/2023,03:25:09,-0.000,0.0,0.0,0.0
24/06/2023,03:26:09,0.000,0.0,0.0,0.0
24/06/2023,03:27:11,0.001,0.0,0.0,0.0
24/06/2023,03:28:09,0.000,0.0,0.0,0.0
24/06/2023,03:29:09,0.001,0.0,0.0,0.0
24/06/2023,03:30:09,0.001,0.0,0.0,0.0
24/06/2023,03:31:09,0.001,0.0,0.0,0.0
24/06/2023,03:32:10,0.001,0.0,0.0,0.0
24/06/2023,03:33:09,0.001,0.0,0.0,0.0
24/06/2023,03:34:09,0.001,0.0,0.0,0.0
24/06/2023,03:35:09,0.001,0.0,0.0,0.0
24/06/2023,03:36:09,0.001,0.0,0.0,0.0
24/06/2023,03:37:09,0.001,0.0,0.0,0.0
24/06/2023,03:38:09,0.001,0.0,0.0,0.0
24/06/2023,03:39:10,0.001,0.0,0.0,0.0
24/06/2023,03:40:09,0.001,0.0,0.0,0.0
24/06/2023,03:41:09,0.001,0.0,0.0,0.0
24/06/2023,03:42:09,0.002,0.0,0.0,0.0
24/06/2023,03:43:09,0.001,0.0,0.0,0.0
24/06/2023,03:44:09,0.002,0.0,0.0,0.0
24/06/2023,03:45:09,0.002,0.0,0.0,0.0
24/06/2023,03:46:10,0.002,0.0,0.0,0.0
24/06/2023,03:47:09,0.002,0.0,0.0,0.0
24/06/2023,03:48:09,0.002,0.0,0.0,0.0
24/06/2023,03:49:09,0.002,0.0,0.0,0.0
24/06/2023,03:50:09,0.002,0.0,0.0,0.0
24/06/2023,03:51:09,0.002,0.0,0.0,0.0
24/06/2023,03:52:09,0.002,0.0,0.0,0.0
24/06/2023,03:53:09,0.002,0.0,0.0,0.0
24/06/2023,03:54:09,0.004,0.0,0.0,0.0
24/06/2023,03:55:09,0.003,0.0,0.0,0.0
24/06/2023,03:56:10,0.003,0.0,0.0,0.0
24/06/2023,03:57:09,0.003,0.0,0.0,0.0
24/06/2023,03:58:09,0.004,0.0,0.0,0.0
24/06/2023,03:59:09,0.004,0.0,0.0,0.0
24/06/2023,04:00:10,0.005,0.0,0.0,0.0
24/06/2023,04:01:09,0.004,0.0,0.0,0.0
24/06/2023,04:02:10,0.005,0.0,0.0,0.0
24/06/2023,04:03:09,0.004,0.0,0.0,0.0
24/06/2023,04:04:09,0.005,0.0,0.0,0.0
24/06/2023,04:05:09,0.005,0.0,0.0,0.0
24/06/2023,04:06:09,0.005,0.0,0.0,0.0
24/06/2023,04:07:09,0.006,0.0,0.0,0.0
24/06/2023,04:08:09,0.006,0.0,0.0,0.0
24/06/2023,04:09:11,0.006,0.0,0.0,0.0
24/06/2023,04:10:09,0.006,0.0,0.0,0.0
24/06/2023,04:11:09,0.006,0.0,0.0,0.0
24/06/2023,04:12:09,0.006,0.0,0.0,0.0
24/06/2023,04:13:10,0.007,0.0,0.0,0.0
24/06/2023,04:14:09,0.007,0.0,0.001,0.001
24/06/2023,04:15:09,0.008,0.0,0.001,0.0
24/06/2023,04:16:10,0.007,0.0,0.001,0.0
24/06/2023,04:17:09,0.008,0.0,0.001,0.0
24/06/2023,04:18:09,0.007,0.0,0.001,0.0
24/06/2023,04:19:09,0.008,0.0,0.001,0.0
24/06/2023,04:20:09,0.007,0.0,0.001,0.0
24/06/2023,04:21:09,0.008,0.0,0.001,0.0
24/06/2023,04:22:09,0.009,0.0,0.002,0.001
24/06/2023,04:23:09,0.009,0.0,0.002,0.0
24/06/2023,04:24:10,0.009,0.0,0.002,0.0
24/06/2023,04:25:09,0.009,0.0,0.002,0.0
24/06/2023,04:26:09,0.009,0.0,0.002,0.0
24/06/2023,04:27:09,0.009,0.0,0.002,0.0
24/06/2023,04:28:09,0.009,0.0,0.002,0.0
24/06/2023,04:29:09,0.009,0.0,0.003,0.001
24/06/2023,04:30:09,0.010,0.0,0.003,0.0
24/06/2023,04:31:09,0.010,0.0,0.003,0.0
24/06/2023,04:32:10,0.010,0.0,0.003,0.0
24/06/2023,04:33:09,0.011,0.0,0.003,0.0
24/06/2023,04:34:09,0.013,0.0,0.003,0.0
24/06/2023,04:35:09,0.012,0.0,0.004,0.001
24/06/2023,04:36:09,0.013,0.0,0.004,0.0
24/06/2023,04:37:10,0.013,0.0,0.004,0.0
24/06/2023,04:38:09,0.013,0.0,0.004,0.0
24/06/2023,04:39:09,0.014,0.0,0.005,0.001
24/06/2023,04:40:10,0.014,0.0,0.005,0.0
24/06/2023,04:41:09,0.015,0.0,0.005,0.0
24/06/2023,04:42:09,0.015,0.0,0.005,0.0
24/06/2023,04:43:09,0.016,0.0,0.006,0.001
24/06/2023,04:44:09,0.015,0.0,0.006,0.0
24/06/2023,04:45:09,0.015,0.0,0.006,0.0
24/06/2023,04:46:09,0.015,0.0,0.006,0.0
24/06/2023,04:47:10,0.014,0.0,0.007,0.001
24/06/2023,04:48:09,0.015,0.0,0.007,0.0
24/06/2023,04:49:09,0.017,0.0,0.007,0.0
24/06/2023,04:50:10,0.017,0.0,0.007,0.0
24/06/2023,04:51:09,0.019,0.0,0.008,0.001
24/06/2023,04:52:09,0.020,0.0,0.008,0.0
24/06/2023,04:53:10,0.022,0.0,0.008,0.0
24/06/2023,04:54:09,0.022,0.0,0.009,0.001
24/06/2023,04:55:09,0.025,0.0,0.009,0.0
24/06/2023,04:56:10,0.024,0.0,0.009,0.0
24/06/2023,04:57:09,0.026,0.0,0.01,0.001
24/06/2023,04:58:10,0.026,0.0,0.01,0.0
24/06/2023,04:59:09,0.025,0.0,0.011,0.001
24/06/2023,05:00:09,0.025,0.0,0.011,0.0
24/06/2023,05:01:09,0.025,0.0,0.012,0.001
24/06/2023,05:02:09,0.024,0.0,0.012,0.0
24/06/2023,05:03:10,0.026,0.0,0.012,0.0
24/06/2023,05:04:09,0.028,0.0,0.013,0.001
24/06/2023,05:05:09,0.030,0.0,0.013,0.0
24/06/2023,05:06:10,0.030,0.0,0.014,0.001
24/06/2023,05:07:10,0.033,0.0,0.014,0.0
24/06/2023,05:08:09,0.034,0.0,0.015,0.001
24/06/2023,05:09:10,0.037,0.0,0.016,0.001
24/06/2023,05:10:10,0.036,0.0,0.016,0.0
24/06/2023,05:11:09,0.034,0.0,0.017,0.001
24/06/2023,05:12:09,0.033,0.0,0.017,0.0
24/06/2023,05:13:09,0.030,0.0,0.018,0.001
24/06/2023,05:14:09,0.032,0.0,0.018,0.0
24/06/2023,05:15:10,0.033,0.0,0.019,0.001
24/06/2023,05:16:10,0.033,0.0,0.019,0.0
24/06/2023,05:17:09,0.032,0.0,0.02,0.001
24/06/2023,05:18:10,0.034,0.0,0.02,0.0
24/06/2023,05:19:09,0.034,0.0,0.021,0.001
24/06/2023,05:20:09,0.035,0.0,0.022,0.001
24/06/2023,05:21:10,0.035,0.0,0.022,0.0
24/06/2023,05:22:09,0.036,0.0,0.023,0.001
24/06/2023,05:23:09,0.036,0.0,0.023,0.0
24/06/2023,05:24:10,0.037,0.0,0.024,0.001
24/06/2023,05:25:09,0.036,0.0,0.025,0.001
24/06/2023,05:26:10,0.037,0.0,0.025,0.0
24/06/2023,05:27:09,0.038,0.0,0.026,0.001
24/06/2023,05:28:09,0.039,0.0,0.026,0.0
24/06/2023,05:29:09,0.041,0.0,0.027,0.001
24/06/2023,05:30:10,0.042,0.0,0.028,0.001
24/06/2023,05:31:10,0.043,0.0,0.029,0.001
24/06/2023,05:32:09,0.045,0.0,0.029,0.0
24/06/2023,05:33:09,0.046,0.0,0.03,0.001
24/06/2023,05:34:10,0.047,0.0,0.031,0.001
24/06/2023,05:35:10,0.048,0.0,0.032,0.001
24/06/2023,05:36:10,0.050,0.0,0.032,0.0
24/06/2023,05:37:09,0.052,0.0,0.033,0.001
24/06/2023,05:38:09,0.054,0.0,0.034,0.001
24/06/2023,05:39:09,0.053,0.0,0.035,0.001
24/06/2023,05:40:09,0.054,0.0,0.036,0.001
24/06/2023,05:41:10,0.055,0.0,0.037,0.001
24/06/2023,05:42:09,0.057,0.0,0.038,0.001
24/06/2023,05:43:10,0.058,0.0,0.039,0.001
24/06/2023,05:44:09,0.059,0.0,0.04,0.001
24/06/2023,05:45:10,0.063,0.0,0.041,0.001
24/06/2023,05:46:09,0.065,0.0,0.042,0.001
24/06/2023,05:47:09,0.068,0.0,0.043,0.001
24/06/2023,05:48:10,0.072,0.0,0.044,0.001
24/06/2023,05:49:09,0.076,0.0,0.045,0.001
24/06/2023,05:50:09,0.081,0.0,0.047,0.002
24/06/2023,05:51:10,0.085,0.0,0.048,0.001
24/06/2023,05:52:09,0.088,0.0,0.049,0.001
24/06/2023,05:53:10,0.089,0.0,0.051,0.002
24/06/2023,05:54:09,0.088,0.0,0.052,0.001
24/06/2023,05:55:10,0.088,0.0,0.054,0.002
24/06/2023,05:56:39,0.085,0.0,0.056,0.002
24/06/2023,05:58:10,0.086,0.0,0.058,0.002
24/06/2023,05:59:09,0.085,0.0,0.06,0.002
24/06/2023,06:00:09,0.086,0.0,0.061,0.001
24/06/2023,06:01:09,0.088,0.0,0.062,0.001
24/06/2023,06:02:10,0.089,0.0,0.064,0.002
24/06/2023,06:03:09,0.092,0.0,0.065,0.001
24/06/2023,06:04:10,0.095,0.0,0.067,0.002
24/06/2023,06:05:09,0.100,0.0,0.069,0.002
24/06/2023,06:06:09,0.106,0.0,0.07,0.001
24/06/2023,06:07:09,0.111,0.0,0.072,0.002
24/06/2023,06:08:09,0.116,0.0,0.074,0.002
24/06/2023,06:09:10,0.120,0.0,0.076,0.002
24/06/2023,06:10:10,0.126,0.0,0.078,0.002
24/06/2023,06:11:09,0.131,0.0,0.08,0.002
24/06/2023,06:12:10,0.135,0.0,0.082,0.002
24/06/2023,06:13:09,0.138,0.0,0.085,0.003
24/06/2023,06:14:10,0.137,0.0,0.087,0.002
24/06/2023,06:15:09,0.138,0.0,0.089,0.002
24/06/2023,06:16:10,0.139,0.0,0.092,0.003
24/06/2023,06:17:09,0.144,0.0,0.094,0.002
24/06/2023,06:18:10,0.152,0.0,0.096,0.002
24/06/2023,06:19:09,0.162,0.0,0.099,0.003
24/06/2023,06:20:09,0.173,0.0,0.102,0.003
24/06/2023,06:21:09,0.183,0.0,0.105,0.003
24/06/2023,06:22:09,0.190,0.0,0.108,0.003
24/06/2023,06:23:10,0.196,0.0,0.111,0.003
24/06/2023,06:24:09,0.196,0.0,0.114,0.003
24/06/2023,06:25:09,0.205,0.0,0.118,0.004
24/06/2023,06:26:09,0.203,0.0,0.121,0.003
24/06/2023,06:27:10,0.199,0.0,0.124,0.003
24/06/2023,06:28:09,0.206,0.0,0.128,0.004
24/06/2023,06:29:09,0.217,0.0,0.131,0.003
24/06/2023,06:30:10,0.230,1.0,0.135,0.004
24/06/2023,06:31:09,0.241,1.0,0.139,0.004
24/06/2023,06:32:10,0.250,1.0,0.143,0.004
24/06/2023,06:33:10,0.258,1.0,0.147,0.004
24/06/2023,06:34:09,0.262,1.0,0.152,0.005
24/06/2023,06:35:10,0.264,1.0,0.156,0.004
24/06/2023,06:36:09,0.266,1.0,0.16,0.004
24/06/2023,06:37:10,0.269,1.0,0.165,0.005
24/06/2023,06:38:09,0.276,1.0,0.169,0.004
24/06/2023,06:39:09,0.287,1.0,0.174,0.005
24/06/2023,06:40:10,0.287,1.0,0.179,0.005
24/06/2023,06:41:09,0.291,1.0,0.184,0.005
24/06/2023,06:42:10,0.294,1.0,0.189,0.005
24/06/2023,06:43:09,0.294,1.0,0.193,0.004
24/06/2023,06:44:09,0.292,1.0,0.198,0.005
24/06/2023,06:45:09,0.293,1.0,0.203,0.005
24/06/2023,06:46:09,0.292,1.0,0.208,0.005
24/06/2023,06:47:09,0.291,1.0,0.213,0.005
24/06/2023,06:48:10,0.289,1.0,0.218,0.005
24/06/2023,06:49:10,0.293,1.0,0.223,0.005
24/06/2023,06:50:09,0.294,1.0,0.228,0.005
24/06/2023,06:51:09,0.302,1.0,0.232,0.004
24/06/2023,06:52:09,0.314,1.0,0.238,0.006
24/06/2023,06:53:09,0.326,1.0,0.243,0.005
24/06/2023,06:54:10,0.337,1.0,0.249,0.006
24/06/2023,06:55:09,0.349,1.0,0.254,0.005
24/06/2023,06:56:10,0.369,1.0,0.26,0.006
24/06/2023,06:57:09,0.385,1.0,0.266,0.006
24/06/2023,06:58:09,0.381,1.0,0.273,0.007
24/06/2023,06:59:09,0.388,1.0,0.279,0.006
24/06/2023,07:00:09,0.412,1.0,0.286,0.007
24/06/2023,07:01:10,0.461,1.0,0.293,0.007
24/06/2023,07:02:09,0.422,1.0,0.301,0.008
24/06/2023,07:03:09,0.414,1.0,0.308,0.007
24/06/2023,07:04:10,0.416,1.0,0.314,0.006
24/06/2023,07:05:10,0.419,1.0,0.321,0.007
24/06/2023,07:06:09,0.425,1.0,0.328,0.007
24/06/2023,07:07:10,0.436,1.0,0.336,0.008
24/06/2023,07:08:09,0.443,1.0,0.343,0.007
24/06/2023,07:09:10,0.445,1.0,0.35,0.007
24/06/2023,07:10:10,0.446,1.0,0.358,0.008
24/06/2023,07:11:09,0.462,1.0,0.365,0.007
24/06/2023,07:12:09,0.461,1.0,0.373,0.008
24/06/2023,07:13:09,0.481,1.0,0.381,0.008
24/06/2023,07:14:10,0.468,1.0,0.389,0.008
24/06/2023,07:15:09,0.452,1.0,0.396,0.007
24/06/2023,07:16:10,0.440,1.0,0.404,0.008
24/06/2023,07:17:10,0.437,1.0,0.411,0.007
24/06/2023,07:18:09,0.448,1.0,0.419,0.008
24/06/2023,07:19:09,0.471,1.0,0.426,0.007
24/06/2023,07:20:10,0.492,1.0,0.434,0.008
24/06/2023,07:21:09,0.480,1.0,0.442,0.008
24/06/2023,07:22:10,0.478,1.0,0.45,0.008
24/06/2023,07:23:09,0.470,1.0,0.458,0.008
24/06/2023,07:24:10,0.462,1.0,0.466,0.008
24/06/2023,07:25:10,0.448,1.0,0.474,0.008
24/06/2023,07:26:09,0.432,1.0,0.481,0.007
24/06/2023,07:27:09,0.419,1.0,0.488,0.007
24/06/2023,07:28:10,0.415,1.0,0.495,0.007
24/06/2023,07:29:09,0.415,1.0,0.502,0.007
24/06/2023,07:30:09,0.411,1.0,0.508,0.006
24/06/2023,07:31:09,0.406,1.0,0.515,0.007
24/06/2023,07:32:09,0.409,1.0,0.522,0.007
24/06/2023,07:33:10,0.418,1.0,0.529,0.007
24/06/2023,07:34:09,0.429,1.0,0.536,0.007
24/06/2023,07:35:10,0.437,1.0,0.543,0.007
24/06/2023,07:36:09,0.446,1.0,0.551,0.008
24/06/2023,07:37:10,0.464,1.0,0.558,0.007
24/06/2023,07:38:10,0.522,1.0,0.567,0.009
24/06/2023,07:39:09,0.504,1.0,0.575,0.008
24/06/2023,07:40:10,0.492,1.0,0.583,0.008
24/06/2023,07:41:09,0.512,1.0,0.591,0.008
24/06/2023,07:42:10,0.457,1.0,0.599,0.008
24/06/2023,07:43:10,0.449,1.0,0.607,0.008
24/06/2023,07:44:09,0.454,1.0,0.615,0.008
24/06/2023,07:45:09,0.447,1.0,0.622,0.007
24/06/2023,07:46:10,0.452,1.0,0.63,0.008
24/06/2023,07:47:09,0.458,1.0,0.637,0.007
24/06/2023,07:48:10,0.463,1.0,0.645,0.008
24/06/2023,07:49:09,0.470,1.0,0.653,0.008
24/06/2023,07:50:10,0.479,1.0,0.661,0.008
24/06/2023,07:51:09,0.490,1.0,0.669,0.008
24/06/2023,07:52:10,0.497,1.0,0.677,0.008
24/06/2023,07:53:09,0.500,1.0,0.685,0.008
24/06/2023,07:54:10,0.498,1.0,0.694,0.009
24/06/2023,07:55:10,0.481,1.0,0.702,0.008
24/06/2023,07:56:09,0.469,1.0,0.71,0.008
24/06/2023,07:57:09,0.470,1.0,0.717,0.007
24/06/2023,07:58:10,0.478,1.0,0.725,0.008
24/06/2023,07:59:09,0.489,1.0,0.733,0.008
24/06/2023,08:00:10,0.502,1.0,0.742,0.009
24/06/2023,08:01:09,0.519,1.0,0.75,0.008
24/06/2023,08:02:10,0.515,1.0,0.759,0.009
24/06/2023,08:03:10,0.506,1.0,0.767,0.008
24/06/2023,08:04:10,0.511,1.0,0.776,0.009
24/06/2023,08:05:10,0.536,1.0,0.784,0.008
24/06/2023,08:06:10,0.590,1.0,0.794,0.01
24/06/2023,08:07:09,0.634,1.0,0.804,0.01
24/06/2023,08:08:09,0.668,2.0,0.815,0.011
24/06/2023,08:09:10,0.687,2.0,0.826,0.011
24/06/2023,08:10:09,0.699,2.0,0.838,0.012
24/06/2023,08:11:09,0.723,2.0,0.849,0.011
24/06/2023,08:12:09,0.735,2.0,0.862,0.013
24/06/2023,08:13:09,0.726,2.0,0.874,0.012
24/06/2023,08:14:10,0.709,2.0,0.886,0.012
24/06/2023,08:15:09,0.695,2.0,0.898,0.012
24/06/2023,08:16:10,0.677,2.0,0.909,0.011
24/06/2023,08:17:10,0.653,2.0,0.92,0.011
24/06/2023,08:18:09,0.627,1.0,0.931,0.011
24/06/2023,08:19:09,0.607,1.0,0.941,0.01
24/06/2023,08:20:09,0.596,1.0,0.951,0.01
24/06/2023,08:21:10,0.598,1.0,0.961,0.01
24/06/2023,08:22:09,0.608,1.0,0.971,0.01
24/06/2023,08:23:10,0.619,1.0,0.981,0.01
24/06/2023,08:24:10,0.625,1.0,0.992,0.011
24/06/2023,08:25:09,0.629,1.0,1.002,0.01
24/06/2023,08:26:10,0.627,1.0,1.013,0.011
24/06/2023,08:27:09,0.625,1.0,1.023,0.01
24/06/2023,08:28:09,0.625,1.0,1.034,0.011
24/06/2023,08:29:10,0.630,1.0,1.044,0.01
24/06/2023,08:30:09,0.641,1.0,1.055,0.011
24/06/2023,08:31:09,0.652,1.0,1.065,0.01
24/06/2023,08:32:10,0.659,2.0,1.076,0.011
24/06/2023,08:33:09,0.661,2.0,1.087,0.011
24/06/2023,08:34:10,0.658,2.0,1.098,0.011
24/06/2023,08:35:09,0.653,2.0,1.109,0.011
24/06/2023,08:36:10,0.651,1.0,1.12,0.011
24/06/2023,08:37:09,0.649,1.0,1.131,0.011
24/06/2023,08:38:10,0.646,1.0,1.142,0.011
24/06/2023,08:39:09,0.634,1.0,1.153,0.011
24/06/2023,08:40:10,0.624,1.0,1.163,0.01
24/06/2023,08:41:10,0.621,1.0,1.173,0.01
24/06/2023,08:42:11,0.630,1.0,1.184,0.011
24/06/2023,08:43:09,0.652,2.0,1.195,0.011
24/06/2023,08:44:10,0.680,2.0,1.206,0.011
24/06/2023,08:45:10,0.704,2.0,1.217,0.011
24/06/2023,08:46:10,0.726,2.0,1.229,0.012
24/06/2023,08:47:10,0.733,2.0,1.241,0.012
24/06/2023,08:48:09,0.722,2.0,1.253,0.012
24/06/2023,08:49:10,0.704,2.0,1.265,0.012
24/06/2023,08:50:09,0.701,2.0,1.277,0.012
24/06/2023,08:51:10,0.714,2.0,1.289,0.012
24/06/2023,08:52:10,0.749,2.0,1.301,0.012
24/06/2023,08:53:09,0.794,2.0,1.314,0.013
24/06/2023,08:54:10,0.846,2.0,1.327,0.013
24/06/2023,08:55:10,0.891,2.0,1.342,0.015
24/06/2023,08:56:10,0.915,2.0,1.357,0.015
24/06/2023,08:57:10,0.937,2.0,1.372,0.015
24/06/2023,08:58:09,0.945,2.0,1.388,0.016
24/06/2023,08:59:10,0.950,2.0,1.404,0.016
24/06/2023,09:00:10,0.959,2.0,1.42,0.016
24/06/2023,09:01:09,0.966,2.0,1.436,0.016
24/06/2023,09:02:09,0.975,2.0,1.452,0.016
24/06/2023,09:03:09,0.995,2.0,1.469,0.017
24/06/2023,09:04:10,1.020,2.0,1.485,0.016
24/06/2023,09:05:10,1.054,2.0,1.503,0.018
24/06/2023,09:06:10,1.104,3.0,1.521,0.018
24/06/2023,09:07:10,1.166,3.0,1.54,0.019
24/06/2023,09:08:10,1.217,3.0,1.56,0.02
24/06/2023,09:09:10,1.271,3.0,1.58,0.02
24/06/2023,09:10:09,1.280,3.0,1.602,0.022
24/06/2023,09:11:09,1.262,3.0,1.623,0.021
24/06/2023,09:12:09,1.330,3.0,1.645,0.022
24/06/2023,09:13:10,1.259,3.0,1.666,0.021
24/06/2023,09:14:10,1.314,3.0,1.688,0.022
24/06/2023,09:15:10,1.337,3.0,1.71,0.022
24/06/2023,09:16:10,1.391,3.0,1.733,0.023
24/06/2023,09:17:10,1.447,3.0,1.757,0.024
24/06/2023,09:18:09,1.553,4.0,1.782,0.025
24/06/2023,09:19:10,1.531,4.0,1.808,0.026
24/06/2023,09:20:09,1.524,4.0,1.834,0.026
24/06/2023,09:21:10,1.734,4.0,1.861,0.027
24/06/2023,09:22:09,1.471,3.0,1.887,0.026
24/06/2023,09:23:10,1.480,3.0,1.912,0.025
24/06/2023,09:24:09,1.439,3.0,1.936,0.024
24/06/2023,09:25:10,1.317,3.0,1.959,0.023
24/06/2023,09:26:10,1.138,3.0,1.98,0.021
24/06/2023,09:27:10,1.039,2.0,1.998,0.018
24/06/2023,09:28:10,1.064,2.0,2.015,0.017
24/06/2023,09:29:09,1.107,3.0,2.033,0.018
24/06/2023,09:30:09,1.102,3.0,2.052,0.019
24/06/2023,09:31:10,1.131,3.0,2.07,0.018
24/06/2023,09:32:10,1.159,3.0,2.089,0.019
24/06/2023,09:33:10,1.166,3.0,2.109,0.02
24/06/2023,09:34:09,1.141,3.0,2.128,0.019
24/06/2023,09:35:10,1.117,3.0,2.147,0.019
24/06/2023,09:36:10,1.100,3.0,2.165,0.018
24/06/2023,09:37:09,1.090,3.0,2.183,0.018
24/06/2023,09:38:10,1.080,2.0,2.202,0.019
24/06/2023,09:39:10,1.073,2.0,2.219,0.017
24/06/2023,09:40:09,1.081,2.0,2.237,0.018
24/06/2023,09:41:10,1.094,3.0,2.256,0.019
24/06/2023,09:42:09,1.099,3.0,2.274,0.018
24/06/2023,09:43:10,1.069,2.0,2.292,0.018
24/06/2023,09:44:10,1.034,2.0,2.309,0.017
24/06/2023,09:45:10,1.034,2.0,2.327,0.018
24/06/2023,09:46:09,1.041,2.0,2.344,0.017
24/06/2023,09:47:10,1.056,2.0,2.361,0.017
24/06/2023,09:48:09,1.042,2.0,2.379,0.018
24/06/2023,09:49:09,0.993,2.0,2.396,0.017
24/06/2023,09:50:10,0.933,2.0,2.412,0.016
24/06/2023,09:51:09,0.918,2.0,2.427,0.015
24/06/2023,09:52:09,0.965,2.0,2.443,0.016
24/06/2023,09:53:10,1.064,2.0,2.46,0.017
24/06/2023,09:54:10,1.195,3.0,2.479,0.019
24/06/2023,09:55:10,1.269,3.0,2.499,0.02